Location: Usti nad Labem
(50.6670°N, 14.0330°E)
Time: 13:34:10
(UTC+01:00)

ISS - Visible Passes

Search period start: 05 December 2016 00:00
Search period end: 15 December 2016 00:00
Orbit: 401 x 410 km, 51.6° (Epoch: 05 December)

Date Brightness Start Highest point End Pass type
(mag) Time Alt. Az. Time Alt. Az. Time Alt. Az.
05 Dec -2.4 17:26:56 10° SW 17:30:01 37° SSE 17:31:29 23° E visible
05 Dec -0.5 19:03:04 10° W 19:04:10 19° W 19:04:10 19° W visible
06 Dec -1.7 16:35:27 10° SSW 16:38:11 25° SE 16:40:57 10° E visible
06 Dec -3.3 18:11:05 10° WSW 18:14:17 80° SSW 18:14:17 80° SSW visible
07 Dec -3.1 17:19:11 10° WSW 17:22:27 62° SSE 17:24:22 22° E visible
07 Dec -0.8 18:55:39 10° W 18:57:03 23° W 18:57:03 23° W visible
08 Dec -3.4 18:03:37 10° W 18:06:56 78° N 18:07:06 74° NNE visible
09 Dec -3.3 17:11:37 10° WSW 17:14:54 89° SSW 17:17:09 19° ENE visible
09 Dec -1.2 18:48:11 10° W 18:49:49 27° WNW 18:49:49 27° WNW visible
10 Dec -3.4 17:56:08 10° W 17:59:27 72° N 17:59:53 61° NE visible
11 Dec -3.3 17:04:05 10° W 17:07:23 75° N 17:09:57 16° E visible
11 Dec -1.6 18:40:39 10° WNW 18:42:37 33° W 18:42:37 33° W visible
12 Dec -3.4 17:48:36 10° W 17:51:55 80° N 17:52:43 48° E visible
12 Dec 0.2 19:25:11 10° W 19:25:23 11° W 19:25:23 11° W visible
13 Dec -3.3 16:56:31 10° W 16:59:50 73° N 17:02:52 12° E visible
13 Dec -2.1 18:33:03 10° WNW 18:35:32 43° WSW 18:35:32 43° WSW visible
14 Dec -3.3 17:40:59 10° WNW 17:44:17 78° SSW 17:45:46 30° ESE visible
14 Dec 0.0 19:17:48 10° W 19:18:28 14° W 19:18:28 14° W visible
